contact:dominique.lefevre@mio.osupytheas.fr, maurice.libes@osupytheas.fr, didier.mallarino@osupytheas.fr
Project:EMSO http://www.emso-fr.org/EMSO-France
Depth: 2436.0 m
Title:EMSO Ligure Ouest : Data MII capteur MICROCAT
DateTime_Computer,Latitude,Longitude,Temperature,Conductivity,Pressure,DateTime_Instrument
DateTime_Computer,Latitude,Longitude,degC,S m-1,dbar,DateTime_Instrument
2021-08-14T00:01:43Z,42.805,6.029,13.2990,4.60003,2470.413,2021-8-14T02:03:01Z
2021-08-14T00:04:46Z,42.805,6.029,13.2996,4.60004,2470.38,2021-8-14T02:06:04Z
2021-08-14T00:07:49Z,42.805,6.029,13.2996,4.60002,2470.404,2021-8-14T02:09:08Z
2021-08-14T00:10:52Z,42.805,6.029,13.2991,4.60006,2470.38,2021-8-14T02:12:11Z
2021-08-14T00:13:55Z,42.805,6.029,13.2995,4.60004,2470.413,2021-8-14T02:15:14Z
2021-08-14T00:16:59Z,42.805,6.029,13.2997,4.60003,2470.39,2021-8-14T02:18:17Z
2021-08-14T00:20:02Z,42.805,6.029,13.2991,4.60004,2470.39,2021-8-14T02:21:20Z
2021-08-14T00:23:05Z,42.805,6.029,13.2997,4.60004,2470.404,2021-8-14T02:24:23Z
2021-08-14T00:26:08Z,42.805,6.029,13.2991,4.60004,2470.366,2021-8-14T02:27:26Z
2021-08-14T00:29:11Z,42.805,6.029,13.2991,4.60002,2470.39,2021-8-14T02:30:29Z
2021-08-14T00:32:14Z,42.805,6.029,13.2992,4.60005,2470.39,2021-8-14T02:33:33Z
2021-08-14T00:35:17Z,42.805,6.029,13.2991,4.60001,2470.404,2021-8-14T02:36:36Z
2021-08-14T00:38:20Z,42.805,6.029,13.2991,4.60001,2470.366,2021-8-14T02:39:39Z
2021-08-14T00:41:24Z,42.805,6.029,13.2993,4.60001,2470.39,2021-8-14T02:42:42Z
2021-08-14T00:44:27Z,42.805,6.029,13.2990,4.60003,2470.366,2021-8-14T02:45:45Z
2021-08-14T00:47:30Z,42.805,6.029,13.2994,4.60001,2470.38,2021-8-14T02:48:48Z
2021-08-14T00:50:33Z,42.805,6.029,13.2991,4.60001,2470.366,2021-8-14T02:51:51Z
2021-08-14T00:53:36Z,42.805,6.029,13.2993,4.60003,2470.366,2021-8-14T02:54:54Z
2021-08-14T00:56:39Z,42.805,6.029,13.2997,4.60004,2470.366,2021-8-14T02:57:58Z
2021-08-14T00:59:42Z,42.805,6.029,13.2990,4.60001,2470.357,2021-8-14T03:01:01Z
2021-08-14T01:02:45Z,42.805,6.029,13.2992,4.60003,2470.343,2021-8-14T03:04:04Z
2021-08-14T01:05:49Z,42.805,6.029,13.2993,4.60006,2470.404,2021-8-14T03:07:07Z
2021-08-14T01:08:52Z,42.805,6.029,13.2996,4.60001,2470.32,2021-8-14T03:10:10Z
2021-08-14T01:11:55Z,42.805,6.029,13.2993,4.60002,2470.343,2021-8-14T03:13:13Z
2021-08-14T01:14:58Z,42.805,6.029,13.2991,4.60004,2470.357,2021-8-14T03:16:16Z
2021-08-14T01:18:01Z,42.805,6.029,13.2988,4.60001,2470.343,2021-8-14T03:19:19Z
2021-08-14T01:21:04Z,42.805,6.029,13.2992,4.60002,2470.343,2021-8-14T03:22:23Z
2021-08-14T01:24:07Z,42.805,6.029,13.2991,4.60003,2470.343,2021-8-14T03:25:26Z
2021-08-14T01:27:10Z,42.805,6.029,13.2996,4.60004,2470.357,2021-8-14T03:28:29Z
2021-08-14T01:30:14Z,42.805,6.029,13.2992,4.60005,2470.32,2021-8-14T03:31:32Z
2021-08-14T01:33:17Z,42.805,6.029,13.2996,4.60004,2470.357,2021-8-14T03:34:35Z
2021-08-14T01:36:20Z,42.805,6.029,13.2988,4.60001,2470.343,2021-8-14T03:37:38Z
2021-08-14T01:39:23Z,42.805,6.029,13.2988,4.60001,2470.357,2021-8-14T03:40:41Z
2021-08-14T01:42:26Z,42.805,6.029,13.2991,4.60002,2470.334,2021-8-14T03:43:44Z
2021-08-14T01:45:29Z,42.805,6.029,13.2993,4.60001,2470.357,2021-8-14T03:46:48Z
2021-08-14T01:48:32Z,42.805,6.029,13.2990,4.60001,2470.32,2021-8-14T03:49:51Z
2021-08-14T01:51:35Z,42.805,6.029,13.2993,4.60001,2470.343,2021-8-14T03:52:54Z
2021-08-14T01:54:39Z,42.805,6.029,13.2992,4.60002,2470.343,2021-8-14T03:55:57Z
2021-08-14T01:57:42Z,42.805,6.029,13.2990,4.60003,2470.297,2021-8-14T03:59:00Z
2021-08-14T02:00:45Z,42.805,6.029,13.2994,4.60003,2470.31,2021-8-14T04:02:03Z
2021-08-14T02:03:48Z,42.805,6.029,13.2991,4.60002,2470.32,2021-8-14T04:05:06Z
2021-08-14T02:06:51Z,42.805,6.029,13.2990,4.60002,2470.31,2021-8-14T04:08:09Z
2021-08-14T02:09:54Z,42.805,6.029,13.2992,4.60001,2470.32,2021-8-14T04:11:13Z
2021-08-14T02:12:57Z,42.805,6.029,13.2994,4.60003,2470.31,2021-8-14T04:14:16Z
2021-08-14T02:16:00Z,42.805,6.029,13.2989,4.60001,2470.32,2021-8-14T04:17:19Z
2021-08-14T02:19:04Z,42.805,6.029,13.2989,4.60004,2470.297,2021-8-14T04:20:22Z
2021-08-14T02:22:07Z,42.805,6.029,13.2989,4.60002,2470.273,2021-8-14T04:23:25Z
2021-08-14T02:25:10Z,42.805,6.029,13.2991,4.60002,2470.297,2021-8-14T04:26:28Z
2021-08-14T02:28:13Z,42.805,6.029,13.2996,4.60002,2470.31,2021-8-14T04:29:31Z
2021-08-14T02:31:16Z,42.805,6.029,13.2993,4.60003,2470.32,2021-8-14T04:32:34Z
2021-08-14T02:34:19Z,42.805,6.029,13.2990,4.60001,2470.31,2021-8-14T04:35:38Z
2021-08-14T02:37:22Z,42.805,6.029,13.2994,4.60003,2470.297,2021-8-14T04:38:41Z
2021-08-14T02:40:25Z,42.805,6.029,13.2989,4.60002,2470.31,2021-8-14T04:41:44Z
2021-08-14T02:43:29Z,42.805,6.029,13.2994,4.60003,2470.273,2021-8-14T04:44:47Z
2021-08-14T02:46:32Z,42.805,6.029,13.2990,4.60005,2470.287,2021-8-14T04:47:50Z
2021-08-14T02:49:35Z,42.805,6.029,13.2992,4.60000,2470.31,2021-8-14T04:50:53Z
2021-08-14T02:52:38Z,42.805,6.029,13.2991,4.60001,2470.31,2021-8-14T04:53:56Z
2021-08-14T02:55:41Z,42.805,6.029,13.2991,4.60003,2470.26,2021-8-14T04:56:59Z
2021-08-14T02:58:44Z,42.805,6.029,13.2990,4.60001,2470.32,2021-8-14T05:00:03Z
2021-08-14T03:01:47Z,42.805,6.029,13.2989,4.60007,2470.297,2021-8-14T05:03:06Z
2021-08-14T03:04:50Z,42.805,6.029,13.2992,4.60005,2470.287,2021-8-14T05:06:09Z
2021-08-14T03:07:53Z,42.805,6.029,13.2994,4.60009,2470.31,2021-8-14T05:09:12Z
2021-08-14T03:10:57Z,42.805,6.029,13.2992,4.60001,2470.26,2021-8-14T05:12:15Z
2021-08-14T03:14:00Z,42.805,6.029,13.2996,4.60002,2470.25,2021-8-14T05:15:18Z
2021-08-14T03:17:03Z,42.805,6.029,13.2991,4.60003,2470.31,2021-8-14T05:18:21Z
2021-08-14T03:20:06Z,42.805,6.029,13.2990,4.60002,2470.273,2021-8-14T05:21:24Z
2021-08-14T03:23:09Z,42.805,6.029,13.2991,4.60001,2470.31,2021-8-14T05:24:27Z
2021-08-14T03:26:12Z,42.805,6.029,13.2990,4.60006,2470.25,2021-8-14T05:27:31Z
2021-08-14T03:29:15Z,42.805,6.029,13.2990,4.60001,2470.287,2021-8-14T05:30:34Z
2021-08-14T03:32:18Z,42.805,6.029,13.2990,4.60003,2470.25,2021-8-14T05:33:37Z
2021-08-14T03:35:22Z,42.805,6.029,13.2991,4.60002,2470.264,2021-8-14T05:36:40Z
2021-08-14T03:38:25Z,42.805,6.029,13.2992,4.60002,2470.273,2021-8-14T05:39:43Z
2021-08-14T03:41:28Z,42.805,6.029,13.2992,4.60007,2470.273,2021-8-14T05:42:46Z
2021-08-14T03:44:31Z,42.805,6.029,13.2991,4.60001,2470.287,2021-8-14T05:45:49Z
2021-08-14T03:47:34Z,42.805,6.029,13.2991,4.60002,2470.25,2021-8-14T05:48:52Z
2021-08-14T03:50:37Z,42.805,6.029,13.2994,4.60009,2470.25,2021-8-14T05:51:56Z
2021-08-14T03:53:40Z,42.805,6.029,13.2993,4.60004,2470.24,2021-8-14T05:54:59Z
2021-08-14T03:56:43Z,42.805,6.029,13.2990,4.60011,2470.227,2021-8-14T05:58:02Z
2021-08-14T03:59:47Z,42.805,6.029,13.2990,4.60003,2470.25,2021-8-14T06:01:05Z
2021-08-14T04:02:50Z,42.805,6.029,13.2993,4.60002,2470.287,2021-8-14T06:04:08Z
2021-08-14T04:05:53Z,42.805,6.029,13.2991,4.60003,2470.264,2021-8-14T06:07:11Z
2021-08-14T04:08:56Z,42.805,6.029,13.2991,4.60001,2470.227,2021-8-14T06:10:14Z
2021-08-14T04:11:59Z,42.805,6.029,13.2995,4.60003,2470.264,2021-8-14T06:13:17Z
2021-08-14T04:15:02Z,42.805,6.029,13.2992,4.60002,2470.24,2021-8-14T06:16:21Z
2021-08-14T04:18:05Z,42.805,6.029,13.2994,4.60001,2470.227,2021-8-14T06:19:24Z
2021-08-14T04:21:08Z,42.805,6.029,13.2994,4.60002,2470.24,2021-8-14T06:22:27Z
2021-08-14T04:24:11Z,42.805,6.029,13.2994,4.60002,2470.273,2021-8-14T06:25:30Z
2021-08-14T04:27:15Z,42.805,6.029,13.2993,4.60001,2470.203,2021-8-14T06:28:33Z
2021-08-14T04:30:18Z,42.805,6.029,13.2988,4.60000,2470.25,2021-8-14T06:31:36Z
2021-08-14T04:33:21Z,42.805,6.029,13.2990,4.60003,2470.227,2021-8-14T06:34:39Z
2021-08-14T04:36:24Z,42.805,6.029,13.2991,4.60001,2470.203,2021-8-14T06:37:42Z
2021-08-14T04:39:27Z,42.805,6.029,13.2994,4.60001,2470.24,2021-8-14T06:40:46Z
2021-08-14T04:42:30Z,42.805,6.029,13.2987,4.60000,2470.203,2021-8-14T06:43:49Z
2021-08-14T04:45:33Z,42.805,6.029,13.2991,4.60001,2470.217,2021-8-14T06:46:52Z
2021-08-14T04:48:37Z,42.805,6.029,13.2991,4.60001,2470.194,2021-8-14T06:49:55Z
2021-08-14T04:51:40Z,42.805,6.029,13.2991,4.60005,2470.217,2021-8-14T06:52:58Z
2021-08-14T04:54:43Z,42.805,6.029,13.2992,4.60003,2470.217,2021-8-14T06:56:01Z
2021-08-14T04:57:46Z,42.805,6.029,13.2992,4.60002,2470.18,2021-8-14T06:59:04Z
2021-08-14T05:00:49Z,42.805,6.029,13.2993,4.60001,2470.24,2021-8-14T07:02:07Z
2021-08-14T05:03:52Z,42.805,6.029,13.2993,4.60001,2470.217,2021-8-14T07:05:11Z
2021-08-14T05:06:55Z,42.805,6.029,13.2993,4.60001,2470.227,2021-8-14T07:08:14Z
2021-08-14T05:09:58Z,42.805,6.029,13.2991,4.60002,2470.18,2021-8-14T07:11:17Z
2021-08-14T05:13:01Z,42.805,6.029,13.2993,4.60001,2470.18,2021-8-14T07:14:20Z
2021-08-14T05:16:05Z,42.805,6.029,13.2986,4.60000,2470.203,2021-8-14T07:17:23Z
2021-08-14T05:19:08Z,42.805,6.029,13.2990,4.59999,2470.18,2021-8-14T07:20:26Z
2021-08-14T05:22:11Z,42.805,6.029,13.2989,4.60000,2470.217,2021-8-14T07:23:29Z
2021-08-14T05:25:14Z,42.805,6.029,13.2989,4.60000,2470.203,2021-8-14T07:26:32Z
2021-08-14T05:28:17Z,42.805,6.029,13.2990,4.60001,2470.194,2021-8-14T07:29:36Z
2021-08-14T05:31:20Z,42.805,6.029,13.2988,4.59999,2470.24,2021-8-14T07:32:39Z
2021-08-14T05:34:23Z,42.805,6.029,13.2987,4.59997,2470.217,2021-8-14T07:35:42Z
2021-08-14T05:37:27Z,42.805,6.029,13.2992,4.59998,2470.203,2021-8-14T07:38:45Z
2021-08-14T05:40:30Z,42.805,6.029,13.2984,4.59999,2470.18,2021-8-14T07:41:48Z
2021-08-14T05:43:33Z,42.805,6.029,13.2991,4.59999,2470.18,2021-8-14T07:44:51Z
2021-08-14T05:46:36Z,42.805,6.029,13.2984,4.59999,2470.194,2021-8-14T07:47:54Z
2021-08-14T05:49:39Z,42.805,6.029,13.2987,4.59998,2470.24,2021-8-14T07:50:57Z
2021-08-14T05:52:42Z,42.805,6.029,13.2988,4.59999,2470.18,2021-8-14T07:54:01Z
2021-08-14T05:55:45Z,42.805,6.029,13.2990,4.60000,2470.194,2021-8-14T07:57:04Z
2021-08-14T05:58:48Z,42.805,6.029,13.2987,4.60001,2470.18,2021-8-14T08:00:07Z
2021-08-14T06:01:51Z,42.805,6.029,13.2991,4.60009,2470.18,2021-8-14T08:03:10Z
2021-08-14T06:04:55Z,42.805,6.029,13.2993,4.60001,2470.18,2021-8-14T08:06:13Z
2021-08-14T06:07:58Z,42.805,6.029,13.2991,4.60003,2470.203,2021-8-14T08:09:16Z
2021-08-14T06:11:01Z,42.805,6.029,13.2992,4.60005,2470.166,2021-8-14T08:12:19Z
2021-08-14T06:14:04Z,42.805,6.029,13.2990,4.60003,2470.166,2021-8-14T08:15:22Z
2021-08-14T06:17:07Z,42.805,6.029,13.2991,4.60007,2470.203,2021-8-14T08:18:26Z
2021-08-14T06:20:10Z,42.805,6.029,13.2993,4.60001,2470.166,2021-8-14T08:21:29Z
2021-08-14T06:23:13Z,42.805,6.029,13.2995,4.60004,2470.156,2021-8-14T08:24:32Z
2021-08-14T06:26:16Z,42.805,6.029,13.2992,4.60002,2470.217,2021-8-14T08:27:35Z
2021-08-14T06:29:20Z,42.805,6.029,13.2995,4.60003,2470.194,2021-8-14T08:30:38Z
2021-08-14T06:32:23Z,42.805,6.029,13.2995,4.60011,2470.18,2021-8-14T08:33:41Z
2021-08-14T06:35:26Z,42.805,6.029,13.2996,4.60001,2470.194,2021-8-14T08:36:44Z
2021-08-14T06:38:29Z,42.805,6.029,13.2993,4.60005,2470.203,2021-8-14T08:39:47Z
2021-08-14T06:41:32Z,42.805,6.029,13.2991,4.60002,2470.203,2021-8-14T08:42:50Z
2021-08-14T06:44:35Z,42.805,6.029,13.2990,4.60004,2470.217,2021-8-14T08:45:54Z
2021-08-14T06:47:38Z,42.805,6.029,13.2992,4.60005,2470.194,2021-8-14T08:48:57Z
2021-08-14T06:50:41Z,42.805,6.029,13.2986,4.60003,2470.217,2021-8-14T08:52:00Z
2021-08-14T06:53:45Z,42.805,6.029,13.2991,4.59999,2470.203,2021-8-14T08:55:03Z
2021-08-14T06:56:48Z,42.805,6.029,13.2990,4.60002,2470.203,2021-8-14T08:58:06Z
2021-08-14T06:59:51Z,42.805,6.029,13.2986,4.60001,2470.18,2021-8-14T09:01:09Z
2021-08-14T07:02:54Z,42.805,6.029,13.2991,4.60003,2470.203,2021-8-14T09:04:12Z
2021-08-14T07:05:57Z,42.805,6.029,13.2990,4.60003,2470.203,2021-8-14T09:07:15Z
2021-08-14T07:09:00Z,42.805,6.029,13.2991,4.60009,2470.203,2021-8-14T09:10:19Z
2021-08-14T07:12:03Z,42.805,6.029,13.2988,4.60004,2470.217,2021-8-14T09:13:22Z
2021-08-14T07:15:06Z,42.805,6.029,13.2990,4.60003,2470.217,2021-8-14T09:16:25Z
2021-08-14T07:18:10Z,42.805,6.029,13.2983,4.60004,2470.217,2021-8-14T09:19:28Z
2021-08-14T07:21:13Z,42.805,6.029,13.2989,4.60011,2470.24,2021-8-14T09:22:31Z
2021-08-14T07:24:16Z,42.805,6.029,13.2992,4.60003,2470.203,2021-8-14T09:25:34Z
2021-08-14T07:27:19Z,42.805,6.029,13.2987,4.60004,2470.213,2021-8-14T09:28:37Z
2021-08-14T07:30:22Z,42.805,6.029,13.2988,4.60003,2470.227,2021-8-14T09:31:40Z
2021-08-14T07:33:25Z,42.805,6.029,13.2989,4.60007,2470.194,2021-8-14T09:34:44Z
2021-08-14T07:36:28Z,42.805,6.029,13.2989,4.60003,2470.24,2021-8-14T09:37:47Z
2021-08-14T07:39:31Z,42.805,6.029,13.2989,4.60006,2470.203,2021-8-14T09:40:50Z
2021-08-14T07:42:35Z,42.805,6.029,13.2986,4.60006,2470.24,2021-8-14T09:43:53Z
2021-08-14T07:45:38Z,42.805,6.029,13.2991,4.60002,2470.217,2021-8-14T09:46:56Z
2021-08-14T07:48:41Z,42.805,6.029,13.2986,4.60009,2470.227,2021-8-14T09:49:59Z
2021-08-14T07:51:44Z,42.805,6.029,13.2993,4.60006,2470.227,2021-8-14T09:53:02Z
2021-08-14T07:54:47Z,42.805,6.029,13.2988,4.60002,2470.25,2021-8-14T09:56:05Z
2021-08-14T07:57:50Z,42.805,6.029,13.2987,4.60009,2470.227,2021-8-14T09:59:09Z
2021-08-14T08:00:53Z,42.805,6.029,13.2992,4.60006,2470.264,2021-8-14T10:02:12Z
2021-08-14T08:03:56Z,42.805,6.029,13.2987,4.60002,2470.24,2021-8-14T10:05:15Z
2021-08-14T08:07:00Z,42.805,6.029,13.2991,4.60006,2470.166,2021-8-14T10:08:18Z
2021-08-14T08:10:03Z,42.805,6.029,13.2986,4.60006,2470.24,2021-8-14T10:11:21Z
2021-08-14T08:13:06Z,42.805,6.029,13.2984,4.60007,2470.227,2021-8-14T10:14:24Z
2021-08-14T08:16:09Z,42.805,6.029,13.2986,4.60006,2470.203,2021-8-14T10:17:27Z
2021-08-14T08:19:12Z,42.805,6.029,13.2987,4.60009,2470.25,2021-8-14T10:20:30Z
2021-08-14T08:22:15Z,42.805,6.029,13.2992,4.60003,2470.227,2021-8-14T10:23:34Z
2021-08-14T08:25:18Z,42.805,6.029,13.2986,4.60006,2470.227,2021-8-14T10:26:37Z
2021-08-14T08:28:21Z,42.805,6.029,13.2986,4.60004,2470.25,2021-8-14T10:29:40Z
2021-08-14T08:31:25Z,42.805,6.029,13.2989,4.60003,2470.25,2021-8-14T10:32:43Z
2021-08-14T08:34:28Z,42.805,6.029,13.2993,4.60003,2470.25,2021-8-14T10:35:46Z
2021-08-14T08:37:31Z,42.805,6.029,13.2990,4.60001,2470.25,2021-8-14T10:38:49Z
2021-08-14T08:40:34Z,42.805,6.029,13.2989,4.60004,2470.24,2021-8-14T10:41:52Z
2021-08-14T08:43:37Z,42.805,6.029,13.2988,4.60006,2470.227,2021-8-14T10:44:55Z
2021-08-14T08:46:40Z,42.805,6.029,13.2988,4.60004,2470.25,2021-8-14T10:47:59Z
2021-08-14T08:49:43Z,42.805,6.029,13.2992,4.60004,2470.287,2021-8-14T10:51:02Z
2021-08-14T08:52:46Z,42.805,6.029,13.2986,4.60003,2470.273,2021-8-14T10:54:05Z
2021-08-14T08:55:50Z,42.805,6.029,13.2988,4.60005,2470.25,2021-8-14T10:57:08Z
2021-08-14T08:58:53Z,42.805,6.029,13.2991,4.60006,2470.287,2021-8-14T11:00:11Z
2021-08-14T09:01:56Z,42.805,6.029,13.2991,4.60006,2470.31,2021-8-14T11:03:14Z
2021-08-14T09:04:59Z,42.805,6.029,13.2991,4.60003,2470.273,2021-8-14T11:06:17Z
2021-08-14T09:08:02Z,42.805,6.029,13.2987,4.60006,2470.273,2021-8-14T11:09:21Z
2021-08-14T09:11:05Z,42.805,6.029,13.2993,4.60004,2470.273,2021-8-14T11:12:24Z
2021-08-14T09:14:08Z,42.805,6.029,13.2986,4.60003,2470.287,2021-8-14T11:15:27Z
2021-08-14T09:17:11Z,42.805,6.029,13.2988,4.60007,2470.273,2021-8-14T11:18:30Z
2021-08-14T09:20:15Z,42.805,6.029,13.2990,4.60003,2470.287,2021-8-14T11:21:33Z
2021-08-14T09:23:18Z,42.805,6.029,13.2991,4.60003,2470.31,2021-8-14T11:24:36Z
2021-08-14T09:26:21Z,42.805,6.029,13.2989,4.60009,2470.297,2021-8-14T11:27:39Z
2021-08-14T09:29:24Z,42.805,6.029,13.2991,4.60006,2470.273,2021-8-14T11:30:42Z
2021-08-14T09:32:27Z,42.805,6.029,13.2990,4.60007,2470.31,2021-8-14T11:33:46Z
2021-08-14T09:35:30Z,42.805,6.029,13.2993,4.60005,2470.31,2021-8-14T11:36:49Z
2021-08-14T09:38:33Z,42.805,6.029,13.2990,4.60000,2470.287,2021-8-14T11:39:52Z
2021-08-14T09:41:36Z,42.805,6.029,13.2990,4.60004,2470.31,2021-8-14T11:42:55Z
2021-08-14T09:44:40Z,42.805,6.029,13.2990,4.60004,2470.297,2021-8-14T11:45:58Z
2021-08-14T09:47:43Z,42.805,6.029,13.2990,4.60004,2470.31,2021-8-14T11:49:01Z
2021-08-14T09:50:46Z,42.805,6.029,13.2989,4.60006,2470.273,2021-8-14T11:52:04Z
2021-08-14T09:53:49Z,42.805,6.029,13.2990,4.60005,2470.273,2021-8-14T11:55:07Z
2021-08-14T09:56:52Z,42.805,6.029,13.2991,4.60009,2470.297,2021-8-14T11:58:11Z
2021-08-14T09:59:55Z,42.805,6.029,13.2989,4.60003,2470.31,2021-8-14T12:01:14Z
2021-08-14T10:02:58Z,42.805,6.029,13.2986,4.60003,2470.297,2021-8-14T12:04:17Z
2021-08-14T10:06:02Z,42.805,6.029,13.2992,4.60006,2470.32,2021-8-14T12:07:20Z
2021-08-14T10:09:05Z,42.805,6.029,13.2989,4.60004,2470.32,2021-8-14T12:10:23Z
2021-08-14T10:12:08Z,42.805,6.029,13.2990,4.60003,2470.32,2021-8-14T12:13:26Z
2021-08-14T10:15:11Z,42.805,6.029,13.2991,4.60004,2470.31,2021-8-14T12:16:29Z
2021-08-14T10:18:14Z,42.805,6.029,13.2987,4.60003,2470.31,2021-8-14T12:19:32Z
2021-08-14T10:21:17Z,42.805,6.029,13.2987,4.60003,2470.31,2021-8-14T12:22:36Z
2021-08-14T10:24:20Z,42.805,6.029,13.2988,4.60001,2470.334,2021-8-14T12:25:39Z
2021-08-14T10:27:23Z,42.805,6.029,13.2991,4.60002,2470.32,2021-8-14T12:28:42Z
2021-08-14T10:30:27Z,42.805,6.029,13.2986,4.60002,2470.31,2021-8-14T12:31:45Z
2021-08-14T10:33:30Z,42.805,6.029,13.2990,4.60003,2470.287,2021-8-14T12:34:48Z
2021-08-14T10:36:33Z,42.805,6.029,13.2988,4.60001,2470.31,2021-8-14T12:37:51Z
2021-08-14T10:39:36Z,42.805,6.029,13.2988,4.60003,2470.297,2021-8-14T12:40:54Z
2021-08-14T10:42:39Z,42.805,6.029,13.2989,4.60001,2470.32,2021-8-14T12:43:57Z
2021-08-14T10:45:42Z,42.805,6.029,13.2990,4.60002,2470.297,2021-8-14T12:47:01Z
2021-08-14T10:48:45Z,42.805,6.029,13.2988,4.60001,2470.273,2021-8-14T12:50:04Z
2021-08-14T10:51:48Z,42.805,6.029,13.2991,4.60001,2470.31,2021-8-14T12:53:07Z
2021-08-14T10:54:52Z,42.805,6.029,13.2984,4.60003,2470.334,2021-8-14T12:56:10Z
2021-08-14T10:57:55Z,42.805,6.029,13.2993,4.60002,2470.297,2021-8-14T12:59:13Z
2021-08-14T11:00:58Z,42.805,6.029,13.2988,4.60001,2470.287,2021-8-14T13:02:16Z
2021-08-14T11:04:01Z,42.805,6.029,13.2989,4.60001,2470.287,2021-8-14T13:05:19Z
2021-08-14T11:07:04Z,42.805,6.029,13.2983,4.60003,2470.297,2021-8-14T13:08:22Z
2021-08-14T11:10:07Z,42.805,6.029,13.2987,4.60003,2470.31,2021-8-14T13:11:26Z
2021-08-14T11:13:10Z,42.805,6.029,13.2989,4.60003,2470.334,2021-8-14T13:14:29Z
2021-08-14T11:16:13Z,42.805,6.029,13.2986,4.60004,2470.32,2021-8-14T13:17:32Z
2021-08-14T11:19:17Z,42.805,6.029,13.2991,4.60004,2470.334,2021-8-14T13:20:35Z
2021-08-14T11:22:20Z,42.805,6.029,13.2987,4.60003,2470.31,2021-8-14T13:23:38Z
2021-08-14T11:25:23Z,42.805,6.029,13.2991,4.60005,2470.25,2021-8-14T13:26:41Z
2021-08-14T11:28:26Z,42.805,6.029,13.2987,4.60006,2470.273,2021-8-14T13:29:44Z
2021-08-14T11:31:29Z,42.805,6.029,13.2988,4.60001,2470.297,2021-8-14T13:32:47Z
2021-08-14T11:34:32Z,42.805,6.029,13.2988,4.59999,2470.297,2021-8-14T13:35:51Z
2021-08-14T11:37:35Z,42.805,6.029,13.2990,4.60001,2470.297,2021-8-14T13:38:54Z
2021-08-14T11:40:39Z,42.805,6.029,13.2986,4.60001,2470.297,2021-8-14T13:41:57Z
2021-08-14T11:43:42Z,42.805,6.029,13.2991,4.60003,2470.273,2021-8-14T13:45:00Z
2021-08-14T11:46:45Z,42.805,6.029,13.2989,4.60003,2470.287,2021-8-14T13:48:03Z
2021-08-14T11:49:48Z,42.805,6.029,13.2990,4.60000,2470.273,2021-8-14T13:51:06Z
2021-08-14T11:52:51Z,42.805,6.029,13.2988,4.60000,2470.273,2021-8-14T13:54:09Z
2021-08-14T11:55:54Z,42.805,6.029,13.2990,4.59999,2470.273,2021-8-14T13:57:13Z
2021-08-14T11:58:57Z,42.805,6.029,13.2993,4.59999,2470.25,2021-8-14T14:00:16Z
2021-08-14T12:02:00Z,42.805,6.029,13.2990,4.60000,2470.25,2021-8-14T14:03:19Z
2021-08-14T12:05:03Z,42.805,6.029,13.2985,4.60001,2470.297,2021-8-14T14:06:22Z
2021-08-14T12:08:07Z,42.805,6.029,13.2990,4.60003,2470.32,2021-8-14T14:09:25Z
2021-08-14T12:11:10Z,42.805,6.029,13.2989,4.60000,2470.273,2021-8-14T14:12:28Z
2021-08-14T12:14:13Z,42.805,6.029,13.2990,4.60001,2470.273,2021-8-14T14:15:31Z
2021-08-14T12:17:16Z,42.805,6.029,13.2988,4.60000,2470.287,2021-8-14T14:18:34Z
2021-08-14T12:20:19Z,42.805,6.029,13.2990,4.60001,2470.31,2021-8-14T14:21:38Z
2021-08-14T12:23:22Z,42.805,6.029,13.2990,4.60001,2470.273,2021-8-14T14:24:41Z
2021-08-14T12:26:25Z,42.805,6.029,13.2986,4.59999,2470.25,2021-8-14T14:27:44Z
2021-08-14T12:29:29Z,42.805,6.029,13.2989,4.59999,2470.227,2021-8-14T14:30:47Z
2021-08-14T12:32:32Z,42.805,6.029,13.2989,4.60001,2470.273,2021-8-14T14:33:50Z
2021-08-14T12:35:35Z,42.805,6.029,13.2989,4.59999,2470.273,2021-8-14T14:36:53Z
2021-08-14T12:38:38Z,42.805,6.029,13.2987,4.59999,2470.31,2021-8-14T14:39:56Z
2021-08-14T12:41:41Z,42.805,6.029,13.2984,4.59999,2470.264,2021-8-14T14:42:59Z
2021-08-14T12:44:44Z,42.805,6.029,13.2989,4.59999,2470.273,2021-8-14T14:46:03Z
2021-08-14T12:47:47Z,42.805,6.029,13.2989,4.60001,2470.273,2021-8-14T14:49:06Z
2021-08-14T12:50:50Z,42.805,6.029,13.2991,4.60001,2470.273,2021-8-14T14:52:09Z
2021-08-14T12:53:54Z,42.805,6.029,13.2988,4.60000,2470.264,2021-8-14T14:55:12Z
2021-08-14T12:56:57Z,42.805,6.029,13.2989,4.59999,2470.25,2021-8-14T14:58:15Z
2021-08-14T13:00:00Z,42.805,6.029,13.2990,4.59999,2470.264,2021-8-14T15:01:18Z
2021-08-14T13:03:03Z,42.805,6.029,13.2986,4.60000,2470.227,2021-8-14T15:04:21Z
2021-08-14T13:06:06Z,42.805,6.029,13.2989,4.60000,2470.287,2021-8-14T15:07:24Z
2021-08-14T13:09:09Z,42.805,6.029,13.2991,4.59999,2470.25,2021-8-14T15:10:28Z
2021-08-14T13:12:12Z,42.805,6.029,13.2989,4.59999,2470.227,2021-8-14T15:13:31Z
2021-08-14T13:15:15Z,42.805,6.029,13.2991,4.59999,2470.25,2021-8-14T15:16:34Z
2021-08-14T13:18:19Z,42.805,6.029,13.2991,4.59998,2470.287,2021-8-14T15:19:37Z
2021-08-14T13:21:22Z,42.805,6.029,13.2986,4.59999,2470.24,2021-8-14T15:22:40Z
2021-08-14T13:24:25Z,42.805,6.029,13.2989,4.59999,2470.25,2021-8-14T15:25:43Z
2021-08-14T13:27:28Z,42.805,6.029,13.2991,4.59999,2470.264,2021-8-14T15:28:46Z
2021-08-14T13:30:31Z,42.805,6.029,13.2990,4.60000,2470.25,2021-8-14T15:31:50Z
2021-08-14T13:33:34Z,42.805,6.029,13.2988,4.59999,2470.273,2021-8-14T15:34:53Z
2021-08-14T13:36:37Z,42.805,6.029,13.2992,4.59999,2470.25,2021-8-14T15:37:56Z
2021-08-14T13:39:40Z,42.805,6.029,13.2990,4.59999,2470.213,2021-8-14T15:40:59Z
2021-08-14T13:42:44Z,42.805,6.029,13.2987,4.59999,2470.227,2021-8-14T15:44:02Z
2021-08-14T13:45:47Z,42.805,6.029,13.2989,4.60001,2470.264,2021-8-14T15:47:05Z
2021-08-14T13:48:50Z,42.805,6.029,13.2991,4.59998,2470.25,2021-8-14T15:50:08Z
2021-08-14T13:51:53Z,42.805,6.029,13.2991,4.59999,2470.24,2021-8-14T15:53:11Z
2021-08-14T13:54:56Z,42.805,6.029,13.2986,4.59999,2470.273,2021-8-14T15:56:15Z
2021-08-14T13:57:59Z,42.805,6.029,13.2990,4.59999,2470.264,2021-8-14T15:59:18Z
2021-08-14T14:01:02Z,42.805,6.029,13.2988,4.60000,2470.273,2021-8-14T16:02:21Z
2021-08-14T14:04:05Z,42.805,6.029,13.2990,4.59999,2470.25,2021-8-14T16:05:24Z
2021-08-14T14:07:09Z,42.805,6.029,13.2993,4.59999,2470.227,2021-8-14T16:08:27Z
2021-08-14T14:10:12Z,42.805,6.029,13.2988,4.59999,2470.227,2021-8-14T16:11:30Z
2021-08-14T14:13:15Z,42.805,6.029,13.2986,4.59999,2470.227,2021-8-14T16:14:33Z
2021-08-14T14:16:18Z,42.805,6.029,13.2988,4.59999,2470.24,2021-8-14T16:17:36Z
2021-08-14T14:19:21Z,42.805,6.029,13.2985,4.59998,2470.24,2021-8-14T16:20:40Z
2021-08-14T14:22:24Z,42.805,6.029,13.2990,4.59998,2470.227,2021-8-14T16:23:43Z
2021-08-14T14:25:27Z,42.805,6.029,13.2990,4.59999,2470.264,2021-8-14T16:26:46Z
2021-08-14T14:28:31Z,42.805,6.029,13.2985,4.60001,2470.227,2021-8-14T16:29:49Z
2021-08-14T14:31:34Z,42.805,6.029,13.2990,4.59999,2470.25,2021-8-14T16:32:52Z
2021-08-14T14:34:37Z,42.805,6.029,13.2986,4.59999,2470.24,2021-8-14T16:35:55Z
2021-08-14T14:37:40Z,42.805,6.029,13.2990,4.60001,2470.227,2021-8-14T16:38:58Z
2021-08-14T14:40:43Z,42.805,6.029,13.2989,4.59999,2470.227,2021-8-14T16:42:01Z
2021-08-14T14:43:46Z,42.805,6.029,13.2990,4.59998,2470.25,2021-8-14T16:45:05Z
2021-08-14T14:46:49Z,42.805,6.029,13.2991,4.59998,2470.203,2021-8-14T16:48:08Z
2021-08-14T14:49:52Z,42.805,6.029,13.2989,4.59999,2470.227,2021-8-14T16:51:11Z
2021-08-14T14:52:56Z,42.805,6.029,13.2987,4.59999,2470.203,2021-8-14T16:54:14Z
2021-08-14T14:55:59Z,42.805,6.029,13.2991,4.59999,2470.227,2021-8-14T16:57:17Z
2021-08-14T14:59:02Z,42.805,6.029,13.2986,4.59999,2470.203,2021-8-14T17:00:20Z
2021-08-14T15:02:05Z,42.805,6.029,13.2989,4.59998,2470.25,2021-8-14T17:03:23Z
2021-08-14T15:05:08Z,42.805,6.029,13.2990,4.59999,2470.24,2021-8-14T17:06:26Z
2021-08-14T15:08:11Z,42.805,6.029,13.2987,4.59998,2470.25,2021-8-14T17:09:30Z
2021-08-14T15:11:14Z,42.805,6.029,13.2991,4.59999,2470.203,2021-8-14T17:12:33Z
2021-08-14T15:14:17Z,42.805,6.029,13.2990,4.60000,2470.236,2021-8-14T17:15:36Z